DateTimeUTC,F1_A11,F1_S11,BsB_S11,BsG_S11,BsR_S11,BbsB_S11,BbsG_S11,BbsR_S11,BaB_A11,BaG_A11,BaR_A11,Tu_S11,T_S11,Uu_S11,U_S11,P_S11,T1_A11
2021-04-28T18:00:00Z,00040200,20000000,,,,,,,-000.02,-000.13,-000.02,20.1,26.9,02.9,01.9,0682.4,31.3
2021-04-28T18:01:00Z,00040200,20000000,,,,,,,0000.06,0000.38,-000.25,20.1,26.9,02.9,01.9,0682.4,31.3
2021-04-28T18:02:00Z,00040200,20000000,,,,,,,-000.12,-000.29,-000.18,20.1,26.9,02.9,01.9,0682.4,31.3
2021-04-28T18:03:00Z,00040200,60000000,,,,,,,0000.44,0000.67,0000.52,20.1,26.9,02.9,01.9,0682.4,31.3
2021-04-28T18:04:00Z,00040200,40000000,0001.52,0000.78,0000.52,-000.13,0000.43,0000.31,0000.37,-000.08,0000.10,20.2,26.8,02.7,01.8,0683.4,31.3
2021-04-28T18:05:00Z,00040200,00000000,0001.24,0000.95,0000.56,0000.89,0000.36,-000.17,0000.51,0000.71,0000.59,20.2,26.7,02.9,01.9,0683.5,31.3
2021-04-28T18:06:00Z,00040200,00000000,0000.79,0000.76,0000.50,0000.21,0000.35,0000.04,0000.50,0000.34,0000.28,20.2,26.7,02.8,01.9,0683.5,31.3
2021-04-28T18:07:00Z,00040200,00000000,0001.70,0001.03,0000.51,-000.00,0000.05,0000.19,-000.03,0000.20,-000.00,20.2,26.7,02.7,01.8,0683.5,31.3
2021-04-28T18:08:00Z,00040200,00000000,0001.98,0000.65,0000.21,0000.05,0000.08,-000.39,0000.56,0000.47,0000.27,20.2,26.7,02.8,01.9,0683.5,31.3
2021-04-28T18:09:00Z,00040200,00000000,0000.85,0000.86,0000.44,0000.23,0000.35,-000.20,0000.78,0000.26,0000.31,20.2,26.7,02.8,01.9,0683.5,31.3
2021-04-28T18:10:00Z,00040200,00000000,0001.46,0000.86,0000.55,-000.22,0000.33,0000.01,-000.30,-000.17,-000.01,20.2,26.7,02.7,01.8,0683.5,31.3
2021-04-28T18:11:00Z,00040200,00000000,0001.57,0000.94,0000.22,-000.03,0000.15,-000.10,0000.53,0000.96,0000.31,20.2,26.7,02.7,01.8,0683.5,31.3
2021-04-28T18:12:00Z,00040200,00000000,0001.81,0000.93,0000.58,0000.39,0000.38,0000.07,0000.39,0000.32,0000.31,20.2,26.7,02.6,01.8,0683.5,31.3
2021-04-28T18:13:00Z,00040200,00000000,0001.07,0000.91,0000.80,-000.17,0000.12,0000.18,0000.55,0000.33,0000.45,20.2,26.7,02.8,01.9,0683.5,31.3
2021-04-28T18:14:00Z,00040200,00000000,0000.99,0000.51,0000.62,0000.38,0000.35,0000.43,0000.49,0000.50,0000.38,20.2,26.7,02.7,01.8,0683.5,31.3
2021-04-28T18:15:00Z,00040200,00000000,0001.49,0001.15,0000.61,-000.35,0000.18,-000.05,0000.95,0000.53,0000.32,20.2,26.7,02.8,01.9,0683.5,31.3
2021-04-28T18:16:00Z,00040200,00000000,0001.36,0000.82,0000.59,0000.43,0000.14,0000.21,-000.10,-000.01,0000.29,20.2,26.7,02.8,01.9,0683.5,31.2
2021-04-28T18:17:00Z,00040200,00000000,0001.58,0000.68,0000.50,-000.06,0000.27,-000.02,0000.41,0000.58,0000.11,20.2,26.7,02.7,01.8,0683.5,31.3
2021-04-28T18:18:00Z,00040200,00000000,0001.51,0000.89,0000.79,0000.07,0000.01,0000.11,0000.67,0000.30,0000.51,20.2,26.7,02.7,01.8,0683.5,31.3
2021-04-28T18:19:00Z,00040200,00000000,0001.69,0000.89,0000.57,0000.05,0000.30,0000.03,0000.02,0000.32,0000.06,20.2,26.7,02.7,01.8,0683.5,31.3
2021-04-28T18:20:00Z,00040200,00000000,0001.46,0000.77,0000.35,-000.10,0000.20,-000.04,0000.59,0000.35,0000.46,20.2,26.7,02.6,01.8,0683.5,31.3
2021-04-28T18:21:00Z,00040200,00000000,0000.90,0000.89,0000.62,0000.27,0000.21,0000.07,0000.59,0000.52,0000.16,20.2,26.7,02.7,01.8,0683.5,31.3
2021-04-28T18:22:00Z,00040200,00000000,0000.86,0000.66,0000.72,0000.46,0000.31,-000.14,0000.08,0000.48,0000.10,20.2,26.7,02.6,01.8,0683.5,31.3
2021-04-28T18:23:00Z,00040200,00000000,0001.94,0000.84,0000.56,0000.37,0000.35,-000.27,0000.59,0000.66,0000.48,20.2,26.7,02.6,01.7,0683.5,31.3
2021-04-28T18:24:00Z,00040200,00000000,0001.80,0001.23,0000.40,0000.08,0000.24,-000.19,0000.25,0000.06,0000.79,20.2,26.7,02.5,01.7,0683.5,31.3
2021-04-28T18:25:00Z,00040200,00000000,0001.36,0000.88,0000.57,0000.06,0000.29,0000.10,0000.69,0000.37,0000.01,20.2,26.7,02.6,01.7,0683.5,31.3
2021-04-28T18:26:00Z,00040200,00000000,0001.52,0001.28,0000.37,0000.66,0000.15,-000.18,0000.41,0000.84,0000.37,20.2,26.7,02.6,01.8,0683.5,31.2
2021-04-28T18:27:00Z,00040200,00000000,0001.85,0000.81,0000.46,0000.26,0000.30,-000.12,-000.07,-000.26,-000.08,20.2,26.7,02.6,01.7,0683.5,31.3
2021-04-28T18:28:00Z,00040200,00000000,0001.51,0000.61,0000.44,-000.05,0000.47,0000.12,0000.67,0000.59,0000.33,20.2,26.7,02.5,01.7,0683.5,31.3
2021-04-28T18:29:00Z,00040200,00000000,0001.98,0000.74,0000.29,0000.61,0000.26,-000.08,0000.55,0000.11,0000.21,20.1,26.7,02.5,01.7,0683.5,31.2
2021-04-28T18:30:00Z,00040200,00000000,0001.90,0000.99,0000.36,-000.09,0000.38,-000.08,0000.81,0000.84,0000.16,20.1,26.6,02.5,01.7,0683.5,31.2
2021-04-28T18:31:00Z,00040200,00000000,0001.74,0000.91,0000.72,0000.14,0000.36,-000.02,-000.21,-000.03,0000.38,20.1,26.6,02.5,01.7,0683.5,31.3
2021-04-28T18:32:00Z,00040200,00000000,0001.61,0000.94,0000.50,0000.87,0000.25,0000.06,0000.66,0000.38,0000.35,20.1,26.6,02.5,01.7,0683.5,31.3
2021-04-28T18:33:00Z,00040200,00000000,0001.06,0000.87,0000.45,0000.57,0000.21,0000.14,0000.19,0000.58,0000.16,20.1,26.6,02.4,01.6,0683.5,31.2
2021-04-28T18:34:00Z,00040200,00000000,0001.94,0000.82,0000.38,0000.38,0000.22,0000.01,0000.52,0000.26,0000.42,20.1,26.6,02.5,01.7,0683.6,31.2
2021-04-28T18:35:00Z,00040200,00000000,0001.64,0001.07,0000.39,0000.04,0000.33,-000.12,0000.29,0000.07,-000.03,20.1,26.6,02.3,01.5,0683.6,31.3
2021-04-28T18:36:00Z,00040200,00000000,0001.77,0000.75,0000.11,-000.03,0000.39,-000.16,0000.36,0000.57,0000.23,20.1,26.6,02.4,01.6,0683.6,31.3
2021-04-28T18:37:00Z,00040200,00000000,0000.65,0000.83,0000.57,-000.50,0000.15,-000.12,-000.15,-000.04,0000.13,20.1,26.6,02.4,01.6,0683.6,31.3
2021-04-28T18:38:00Z,00040200,00000000,0002.04,0000.77,0000.49,0000.22,0000.23,0000.01,0000.47,0000.28,0000.55,20.1,26.6,02.3,01.6,0683.6,31.3
2021-04-28T18:39:00Z,00040200,00000000,0001.43,0001.20,0000.29,0000.04,0000.09,-000.02,0000.78,0000.39,0000.11,20.1,26.6,02.3,01.5,0683.6,31.3
2021-04-28T18:40:00Z,00040200,00000000,0001.29,0000.72,0000.26,0000.32,0000.49,0000.11,0000.32,0000.51,0000.28,20.1,26.6,02.2,01.5,0683.6,31.2
2021-04-28T18:41:00Z,00040200,00000000,0001.20,0000.79,0000.58,0000.27,0000.32,0000.07,0000.27,0000.38,0000.45,20.1,26.6,02.3,01.5,0683.6,31.2
2021-04-28T18:42:00Z,00040200,00000000,0001.09,0000.95,0000.83,-000.08,0000.30,0000.30,0000.32,-000.18,-000.20,20.1,26.6,02.2,01.5,0683.6,31.3
2021-04-28T18:43:00Z,00040200,00000000,0000.97,0000.71,0000.70,-000.11,0000.43,0000.23,0000.11,0000.50,0000.15,20.1,26.6,02.1,01.4,0683.6,31.3
2021-04-28T18:44:00Z,00040200,00000000,0001.59,0000.87,0000.34,0000.05,0000.24,-000.05,0000.57,0000.34,0000.58,20.1,26.6,02.0,01.3,0683.6,31.2
2021-04-28T18:45:00Z,00040200,00000000,0001.42,0001.00,0000.60,0000.18,0000.18,0000.12,0000.29,0000.39,0000.32,20.1,26.6,02.1,01.4,0683.6,31.3
2021-04-28T18:46:00Z,00040200,00000000,0001.09,0000.64,0000.35,0000.04,0000.15,-000.15,0000.24,0000.40,-000.01,20.1,26.6,02.1,01.4,0683.6,31.3
2021-04-28T18:47:00Z,00040200,00000000,0001.43,0000.88,0000.56,0000.43,0000.38,-000.01,0000.35,0000.29,0000.27,20.1,26.6,02.0,01.4,0683.7,31.3
2021-04-28T18:48:00Z,00040200,00000000,0001.86,0001.31,0000.63,0000.89,0000.45,0000.07,0000.53,0000.23,-000.05,20.1,26.6,02.0,01.4,0683.7,31.3
2021-04-28T18:49:00Z,00040200,00000000,0001.76,0001.08,0000.70,0000.98,0000.34,0000.11,0000.71,0000.39,0000.60,20.1,26.6,02.0,01.4,0683.6,31.3
2021-04-28T18:50:00Z,00040200,00000000,0001.40,0000.83,0000.44,0000.48,0000.23,-000.15,0000.31,0000.64,0000.25,20.1,26.6,02.1,01.4,0683.6,31.3
2021-04-28T18:51:00Z,00040200,01000000,0001.72,0000.99,0000.50,0000.46,0000.22,-000.14,0000.69,0000.09,0000.47,20.1,26.6,02.0,01.4,0683.6,31.3
2021-04-28T18:52:00Z,00040200,00000000,0001.15,0001.03,0000.40,0000.40,0000.28,-000.13,0000.42,0000.88,0000.47,20.1,26.6,01.9,01.3,0683.6,31.2
2021-04-28T18:53:00Z,00040200,01000000,0002.00,0000.84,0000.78,0000.45,0000.47,-000.11,0000.08,0000.10,0000.09,20.1,26.6,01.9,01.3,0683.6,31.3
2021-04-28T18:54:00Z,00040200,00000000,0001.20,0001.05,0000.42,0000.09,0000.37,-000.08,0000.93,0000.56,0000.18,20.1,26.6,02.0,01.4,0683.6,31.2
2021-04-28T18:55:00Z,00040200,00000000,0001.60,0000.73,0000.64,0000.51,0000.10,-000.19,0000.02,0000.12,0000.21,20.1,26.6,02.0,01.4,0683.7,31.2
2021-04-28T18:56:00Z,00040200,01000000,0001.09,0000.77,0000.67,0000.10,0000.37,-000.10,0000.12,0000.18,0000.52,20.0,26.6,01.9,01.3,0683.6,31.3
2021-04-28T18:57:00Z,00040200,40000000,,,,,,,0001.01,0001.10,0000.47,20.1,26.6,01.6,01.1,0683.7,31.3
2021-04-28T18:58:00Z,00040200,60000000,,,,,,,-000.17,-000.44,-000.37,19.9,26.7,01.9,01.3,0682.6,31.2
2021-04-28T18:59:00Z,00040200,20000000,,,,,,,-000.61,-000.37,-000.18,19.8,26.8,02.0,01.3,0682.6,31.3
